Year,Month,Day,Hour,Minute,Value (Times are PST for temperature in C)
2016,08,19,00,00,23.10
2016,08,19,00,01,23.10
2016,08,19,00,02,23.10
2016,08,19,00,03,23.10
2016,08,19,00,04,23.10
2016,08,19,00,05,23.10
2016,08,19,00,06,23.10
2016,08,19,00,07,23.10
2016,08,19,00,08,23.20
2016,08,19,00,09,23.20
2016,08,19,00,10,23.20
2016,08,19,00,11,23.20
2016,08,19,00,12,23.20
2016,08,19,00,13,23.20
2016,08,19,00,14,23.20
2016,08,19,00,15,23.20
2016,08,19,00,16,23.10
2016,08,19,00,17,23.10
2016,08,19,00,18,23.10
2016,08,19,00,19,23.00
2016,08,19,00,20,22.90
2016,08,19,00,21,22.90
2016,08,19,00,22,22.90
2016,08,19,00,23,22.90
2016,08,19,00,24,22.90
2016,08,19,00,25,22.90
2016,08,19,00,26,22.90
2016,08,19,00,27,22.90
2016,08,19,00,28,22.90
2016,08,19,00,29,22.80
2016,08,19,00,30,22.80
2016,08,19,00,31,22.80
2016,08,19,00,32,22.80
2016,08,19,00,33,22.90
2016,08,19,00,34,22.90
2016,08,19,00,35,22.90
2016,08,19,00,36,22.90
2016,08,19,00,37,22.90
2016,08,19,00,38,23.00
2016,08,19,00,39,23.10
2016,08,19,00,40,23.10
2016,08,19,00,41,23.10
2016,08,19,00,42,23.20
2016,08,19,00,43,23.20
2016,08,19,00,44,23.10
2016,08,19,00,45,23.10
2016,08,19,00,46,23.10
2016,08,19,00,47,23.00
2016,08,19,00,48,22.90
2016,08,19,00,49,22.90
2016,08,19,00,50,22.90
2016,08,19,00,51,22.90
2016,08,19,00,52,22.90
2016,08,19,00,53,22.90
2016,08,19,00,54,22.90
2016,08,19,00,55,22.90
2016,08,19,00,56,22.90
2016,08,19,00,57,22.90
2016,08,19,00,58,22.80
2016,08,19,00,59,22.80
2016,08,19,01,00,22.80
2016,08,19,01,01,22.80
2016,08,19,01,02,22.80
2016,08,19,01,03,22.80
2016,08,19,01,04,22.80
2016,08,19,01,05,22.80
2016,08,19,01,06,22.80
2016,08,19,01,07,22.80
2016,08,19,01,08,22.80
2016,08,19,01,09,22.80
2016,08,19,01,10,22.80
2016,08,19,01,11,22.80
2016,08,19,01,12,22.80
2016,08,19,01,13,22.80
2016,08,19,01,14,22.80
2016,08,19,01,15,22.80
2016,08,19,01,16,22.80
2016,08,19,01,17,22.80
2016,08,19,01,18,22.80
2016,08,19,01,19,22.80
2016,08,19,01,20,22.80
2016,08,19,01,21,22.80
2016,08,19,01,22,22.80
2016,08,19,01,23,22.90
2016,08,19,01,24,22.90
2016,08,19,01,25,22.90
2016,08,19,01,26,22.90
2016,08,19,01,27,22.90
2016,08,19,01,28,22.90
2016,08,19,01,29,22.90
2016,08,19,01,30,22.90
2016,08,19,01,31,23.10
2016,08,19,01,32,23.10
2016,08,19,01,33,23.10
2016,08,19,01,34,23.20
2016,08,19,01,35,23.20
2016,08,19,01,36,23.20
2016,08,19,01,37,23.30
2016,08,19,01,38,23.30
2016,08,19,01,39,23.30
2016,08,19,01,40,23.30
2016,08,19,01,41,23.30
2016,08,19,01,42,23.30
2016,08,19,01,43,23.20
2016,08,19,01,44,23.20
2016,08,19,01,45,23.20
2016,08,19,01,46,23.10
2016,08,19,01,47,23.10
2016,08,19,01,48,23.10
2016,08,19,01,49,23.00
2016,08,19,01,50,22.90
2016,08,19,01,51,22.90
2016,08,19,01,52,22.90
2016,08,19,01,53,22.90
2016,08,19,01,54,22.90
2016,08,19,01,55,22.90
2016,08,19,01,56,22.90
2016,08,19,01,57,22.90
2016,08,19,01,58,22.90
2016,08,19,01,59,22.90
2016,08,19,02,00,22.90
2016,08,19,02,01,23.00
2016,08,19,02,02,23.10
2016,08,19,02,03,23.10
2016,08,19,02,04,23.10
2016,08,19,02,05,23.10
2016,08,19,02,06,23.10
2016,08,19,02,07,23.10
2016,08,19,02,08,23.10
2016,08,19,02,09,23.10
2016,08,19,02,10,23.00
2016,08,19,02,11,22.90
2016,08,19,02,12,22.90
2016,08,19,02,13,22.90
2016,08,19,02,14,22.90
2016,08,19,02,15,22.90
2016,08,19,02,16,22.90
2016,08,19,02,17,22.90
2016,08,19,02,18,22.90
2016,08,19,02,19,22.90
2016,08,19,02,20,22.90
2016,08,19,02,21,22.90
2016,08,19,02,22,22.90
2016,08,19,02,23,22.90
2016,08,19,02,24,22.90
2016,08,19,02,25,22.90
2016,08,19,02,26,22.90
2016,08,19,02,27,22.90
2016,08,19,02,28,22.90
2016,08,19,02,29,22.90
2016,08,19,02,30,22.90
2016,08,19,02,31,22.90
2016,08,19,02,32,22.80
2016,08,19,02,33,22.70
2016,08,19,02,34,22.60
2016,08,19,02,35,22.60
2016,08,19,02,36,22.50
2016,08,19,02,37,22.40
2016,08,19,02,38,22.30
2016,08,19,02,39,22.10
2016,08,19,02,40,22.00
2016,08,19,02,41,21.90
2016,08,19,02,42,21.70
2016,08,19,02,43,21.60
2016,08,19,02,44,21.50
2016,08,19,02,45,21.30
2016,08,19,02,46,21.30
2016,08,19,02,47,21.20
2016,08,19,02,48,21.20
2016,08,19,02,49,21.10
2016,08,19,02,50,21.10
2016,08,19,02,51,21.10
2016,08,19,02,52,21.10
2016,08,19,02,53,21.10
2016,08,19,02,54,21.00
2016,08,19,02,55,21.00
2016,08,19,02,56,21.00
2016,08,19,02,57,21.00
2016,08,19,02,58,21.00
2016,08,19,02,59,21.00
2016,08,19,03,00,21.00
2016,08,19,03,01,21.00
2016,08,19,03,02,21.00
2016,08,19,03,03,21.00
2016,08,19,03,04,21.00
2016,08,19,03,05,21.00
2016,08,19,03,06,21.00
2016,08,19,03,07,21.00
2016,08,19,03,08,21.00
2016,08,19,03,09,21.00
2016,08,19,03,10,21.00
2016,08,19,03,11,21.10
2016,08,19,03,12,21.10
2016,08,19,03,13,21.10
2016,08,19,03,14,21.20
2016,08,19,03,15,21.20
2016,08,19,03,16,21.30
2016,08,19,03,17,21.30
2016,08,19,03,18,21.30
2016,08,19,03,19,21.30
2016,08,19,03,20,21.30
2016,08,19,03,21,21.30
2016,08,19,03,22,21.20
2016,08,19,03,23,21.20
2016,08,19,03,24,21.20
2016,08,19,03,25,21.20
2016,08,19,03,26,21.20
2016,08,19,03,27,21.20
2016,08,19,03,28,21.20
2016,08,19,03,29,21.20
2016,08,19,03,30,21.20
2016,08,19,03,31,21.20
2016,08,19,03,32,21.20
2016,08,19,03,33,21.20
2016,08,19,03,34,21.20
2016,08,19,03,35,21.20
2016,08,19,03,36,21.20
2016,08,19,03,37,21.20
2016,08,19,03,38,21.20
2016,08,19,03,39,21.20
2016,08,19,03,40,21.20
2016,08,19,03,41,21.20
2016,08,19,03,42,21.10
2016,08,19,03,43,21.10
2016,08,19,03,44,21.10
2016,08,19,03,45,21.10
2016,08,19,03,46,21.00
2016,08,19,03,47,21.00
2016,08,19,03,48,21.00
2016,08,19,03,49,21.00
2016,08,19,03,50,21.00
2016,08,19,03,51,21.00
2016,08,19,03,52,21.00
2016,08,19,03,53,21.00
2016,08,19,03,54,21.00
2016,08,19,03,55,21.00
2016,08,19,03,56,21.00
2016,08,19,03,57,21.00
2016,08,19,03,58,21.00
2016,08,19,03,59,21.00
2016,08,19,04,00,21.00
2016,08,19,04,01,21.00
2016,08,19,04,02,20.90
2016,08,19,04,03,20.90
2016,08,19,04,04,20.80
2016,08,19,04,05,20.80
2016,08,19,04,06,20.70
2016,08,19,04,07,20.60
2016,08,19,04,08,20.50
2016,08,19,04,09,20.40
2016,08,19,04,10,20.40
2016,08,19,04,11,20.30
2016,08,19,04,12,20.20
2016,08,19,04,13,20.20
2016,08,19,04,14,20.20
2016,08,19,04,15,20.10
2016,08,19,04,16,20.10
2016,08,19,04,17,20.10
2016,08,19,04,18,20.10
2016,08,19,04,19,20.10
2016,08,19,04,20,20.10
2016,08,19,04,21,20.10
2016,08,19,04,22,20.10
2016,08,19,04,23,20.10
2016,08,19,04,24,20.10
2016,08,19,04,25,20.00
2016,08,19,04,26,19.90
2016,08,19,04,27,19.90
2016,08,19,04,28,19.90
2016,08,19,04,29,19.90
2016,08,19,04,30,19.90
2016,08,19,04,31,19.80
2016,08,19,04,32,19.80
2016,08,19,04,33,19.70
2016,08,19,04,34,19.70
2016,08,19,04,35,19.60
2016,08,19,04,36,19.50
2016,08,19,04,37,19.40
2016,08,19,04,38,19.40
2016,08,19,04,39,19.30
2016,08,19,04,40,19.30
2016,08,19,04,41,19.20
2016,08,19,04,42,19.10
2016,08,19,04,43,19.10
2016,08,19,04,44,19.10
2016,08,19,04,45,19.00
2016,08,19,04,46,18.90
2016,08,19,04,47,18.90
2016,08,19,04,48,18.90
2016,08,19,04,49,18.80
2016,08,19,04,50,18.80
2016,08,19,04,51,18.70
2016,08,19,04,52,18.70
2016,08,19,04,53,18.70
2016,08,19,04,54,18.60
2016,08,19,04,55,18.60
2016,08,19,04,56,18.60
2016,08,19,04,57,18.50
2016,08,19,04,58,18.50
2016,08,19,04,59,18.50
2016,08,19,05,00,18.40
2016,08,19,05,01,18.40
2016,08,19,05,02,18.40
2016,08,19,05,03,18.40
2016,08,19,05,04,18.40
2016,08,19,05,05,18.40
2016,08,19,05,06,18.40
2016,08,19,05,07,18.40
2016,08,19,05,08,18.40
2016,08,19,05,09,18.50
2016,08,19,05,10,18.50
2016,08,19,05,11,18.50
2016,08,19,05,12,18.50
2016,08,19,05,13,18.50
2016,08,19,05,14,18.50
2016,08,19,05,15,18.50
2016,08,19,05,16,18.50
2016,08,19,05,17,18.50
2016,08,19,05,18,18.50
2016,08,19,05,19,18.50
2016,08,19,05,20,18.60
2016,08,19,05,21,18.60
2016,08,19,05,22,18.60
2016,08,19,05,23,18.60
2016,08,19,05,24,18.60
2016,08,19,05,25,18.60
2016,08,19,05,26,18.60
2016,08,19,05,27,18.60
2016,08,19,05,28,18.60
2016,08,19,05,29,18.60
2016,08,19,05,30,18.60
2016,08,19,05,31,18.60
2016,08,19,05,32,18.60
2016,08,19,05,33,18.50
2016,08,19,05,34,18.50
2016,08,19,05,35,18.50
2016,08,19,05,36,18.40
2016,08,19,05,37,18.40
2016,08,19,05,38,18.40
2016,08,19,05,39,18.40
2016,08,19,05,40,18.40
2016,08,19,05,41,18.40
2016,08,19,05,42,18.40
2016,08,19,05,43,18.40
2016,08,19,05,44,18.50
2016,08,19,05,45,18.50
2016,08,19,05,46,18.60
2016,08,19,05,47,18.60
2016,08,19,05,48,18.60
2016,08,19,05,49,18.70
2016,08,19,05,50,18.70
2016,08,19,05,51,18.70
2016,08,19,05,52,18.80
2016,08,19,05,53,18.80
2016,08,19,05,54,18.90
2016,08,19,05,55,18.90
2016,08,19,05,56,18.90
2016,08,19,05,57,18.90
2016,08,19,05,58,18.90
2016,08,19,05,59,18.90
2016,08,19,06,00,18.90
2016,08,19,06,01,18.90
2016,08,19,06,02,18.90
2016,08,19,06,03,18.90
2016,08,19,06,04,19.10
2016,08,19,06,05,19.10
2016,08,19,06,06,19.10
2016,08,19,06,07,19.10
2016,08,19,06,08,19.10
2016,08,19,06,09,19.10
2016,08,19,06,10,19.10
2016,08,19,06,11,19.10
2016,08,19,06,12,19.10
2016,08,19,06,13,19.10
2016,08,19,06,14,19.10
2016,08,19,06,15,19.10
2016,08,19,06,16,19.10
2016,08,19,06,17,19.10
2016,08,19,06,18,19.10
2016,08,19,06,19,19.10
2016,08,19,06,20,19.10
2016,08,19,06,21,19.10
2016,08,19,06,22,19.10
2016,08,19,06,23,19.10
2016,08,19,06,24,19.10
2016,08,19,06,25,19.10
2016,08,19,06,26,19.10
2016,08,19,06,27,19.10
2016,08,19,06,28,19.10
2016,08,19,06,29,19.10
2016,08,19,06,30,19.10
2016,08,19,06,31,19.10
2016,08,19,06,32,19.20
2016,08,19,06,33,19.20
2016,08,19,06,34,19.30
2016,08,19,06,35,19.30
2016,08,19,06,36,19.30
2016,08,19,06,37,19.40
2016,08,19,06,38,19.40
2016,08,19,06,39,19.40
2016,08,19,06,40,19.40
2016,08,19,06,41,19.40
2016,08,19,06,42,19.40
2016,08,19,06,43,19.40
2016,08,19,06,44,19.40
2016,08,19,06,45,19.40
2016,08,19,06,46,19.40
2016,08,19,06,47,19.40
2016,08,19,06,48,19.40
2016,08,19,06,49,19.40
2016,08,19,06,50,19.40
2016,08,19,06,51,19.50
2016,08,19,06,52,19.50
2016,08,19,06,53,19.50
2016,08,19,06,54,19.50
2016,08,19,06,55,19.60
2016,08,19,06,56,19.60
2016,08,19,06,57,19.70
2016,08,19,06,58,19.70
2016,08,19,06,59,19.70
2016,08,19,07,00,19.80
2016,08,19,07,01,19.80
2016,08,19,07,02,19.80
2016,08,19,07,03,19.80
2016,08,19,07,04,19.90
2016,08,19,07,05,19.90
2016,08,19,07,06,19.90
2016,08,19,07,07,19.90
2016,08,19,07,08,19.90
2016,08,19,07,09,19.90
2016,08,19,07,10,19.90
2016,08,19,07,11,19.90
2016,08,19,07,12,19.80
2016,08,19,07,13,19.80
2016,08,19,07,14,19.80
2016,08,19,07,15,19.80
2016,08,19,07,16,19.80
2016,08,19,07,17,19.80
2016,08,19,07,18,19.80
2016,08,19,07,19,19.70
2016,08,19,07,20,19.70
2016,08,19,07,21,19.70
2016,08,19,07,22,19.70
2016,08,19,07,23,19.80
2016,08,19,07,24,19.80
2016,08,19,07,25,19.80
2016,08,19,07,26,19.80
2016,08,19,07,27,19.80
2016,08,19,07,28,19.80
2016,08,19,07,29,19.80
2016,08,19,07,30,19.80
2016,08,19,07,31,19.90
2016,08,19,07,32,19.90
2016,08,19,07,33,19.90
2016,08,19,07,34,19.90
2016,08,19,07,35,19.90
2016,08,19,07,36,19.90
2016,08,19,07,37,19.90
2016,08,19,07,38,19.90
2016,08,19,07,39,19.90
2016,08,19,07,40,19.90
2016,08,19,07,41,19.90
2016,08,19,07,42,19.90
2016,08,19,07,43,19.90
2016,08,19,07,44,20.00
2016,08,19,07,45,20.10
2016,08,19,07,46,20.10
2016,08,19,07,47,20.10
2016,08,19,07,48,20.20
2016,08,19,07,49,20.20
2016,08,19,07,50,20.20
2016,08,19,07,51,20.20
2016,08,19,07,52,20.30
2016,08,19,07,53,20.30
2016,08,19,07,54,20.40
2016,08,19,07,55,20.40
2016,08,19,07,56,20.50
2016,08,19,07,57,20.50
2016,08,19,07,58,20.50
2016,08,19,07,59,20.60
2016,08,19,08,00,20.60
2016,08,19,08,01,20.70
2016,08,19,08,02,20.70
2016,08,19,08,03,20.80
2016,08,19,08,04,20.80
2016,08,19,08,05,20.80
2016,08,19,08,06,20.90
2016,08,19,08,07,20.90
2016,08,19,08,08,21.00
2016,08,19,08,09,21.00
2016,08,19,08,10,21.00
2016,08,19,08,11,21.00
2016,08,19,08,12,21.10
2016,08,19,08,13,21.10
2016,08,19,08,14,21.10
2016,08,19,08,15,21.10
2016,08,19,08,16,21.10
2016,08,19,08,17,21.10
2016,08,19,08,18,21.10
2016,08,19,08,19,21.10
2016,08,19,08,20,21.20
2016,08,19,08,21,21.20
2016,08,19,08,22,21.20
2016,08,19,08,23,21.20
2016,08,19,08,24,21.30
2016,08,19,08,25,21.30
2016,08,19,08,26,21.30
2016,08,19,08,27,21.30
2016,08,19,08,28,21.30
2016,08,19,08,29,21.40
2016,08,19,08,30,21.40
2016,08,19,08,31,21.50
2016,08,19,08,32,21.60
2016,08,19,08,33,21.60
2016,08,19,08,34,21.60
2016,08,19,08,35,21.60
2016,08,19,08,36,21.60
2016,08,19,08,37,21.60
2016,08,19,08,38,21.70
2016,08,19,08,39,21.70
2016,08,19,08,40,21.70
2016,08,19,08,41,21.70
2016,08,19,08,42,21.70
2016,08,19,08,43,21.70
2016,08,19,08,44,21.70
2016,08,19,08,45,21.70
2016,08,19,08,46,21.70
2016,08,19,08,47,21.80
2016,08,19,08,48,21.80
2016,08,19,08,49,21.90
2016,08,19,08,50,21.90
2016,08,19,08,51,21.90
2016,08,19,08,52,22.00
2016,08,19,08,53,22.00
2016,08,19,08,54,22.00
2016,08,19,08,55,22.10
2016,08,19,08,56,22.10
2016,08,19,08,57,22.10
2016,08,19,08,58,22.20
2016,08,19,08,59,22.30
2016,08,19,09,00,22.30
2016,08,19,09,01,22.30
2016,08,19,09,02,22.40
2016,08,19,09,03,22.40
2016,08,19,09,04,22.40
2016,08,19,09,05,22.40
2016,08,19,09,06,22.40
2016,08,19,09,07,22.40
2016,08,19,09,08,22.40
2016,08,19,09,09,22.40
2016,08,19,09,10,22.30
2016,08,19,09,11,22.30
2016,08,19,09,12,22.40
2016,08,19,09,13,22.40
2016,08,19,09,14,22.40
2016,08,19,09,15,22.40
2016,08,19,09,16,22.40
2016,08,19,09,17,22.50
2016,08,19,09,18,22.50
2016,08,19,09,19,22.50
2016,08,19,09,20,22.50
2016,08,19,09,21,22.50
2016,08,19,09,22,22.60
2016,08,19,09,23,22.60
2016,08,19,09,24,22.60
2016,08,19,09,25,22.70
2016,08,19,09,26,22.80
2016,08,19,09,27,22.90
2016,08,19,09,28,22.90
2016,08,19,09,29,22.90
2016,08,19,09,30,22.90
2016,08,19,09,31,22.90
2016,08,19,09,32,22.90
2016,08,19,09,33,22.90
2016,08,19,09,34,22.90
2016,08,19,09,35,22.90
2016,08,19,09,36,22.90
2016,08,19,09,37,22.90
2016,08,19,09,38,22.90
2016,08,19,09,39,22.90
2016,08,19,09,40,23.00
2016,08,19,09,41,23.10
2016,08,19,09,42,23.10
2016,08,19,09,43,23.10
2016,08,19,09,44,23.20
2016,08,19,09,45,23.20
2016,08,19,09,46,23.30
2016,08,19,09,47,23.30
2016,08,19,09,48,23.30
2016,08,19,09,49,23.30
2016,08,19,09,50,23.30
2016,08,19,09,51,23.30
2016,08,19,09,52,23.30
2016,08,19,09,53,23.40
2016,08,19,09,54,23.50
2016,08,19,09,55,23.60
2016,08,19,09,56,23.60
2016,08,19,09,57,23.70
2016,08,19,09,58,23.70
2016,08,19,09,59,23.70
2016,08,19,10,00,23.70
2016,08,19,10,01,23.70
2016,08,19,10,02,23.70
2016,08,19,10,03,23.70
2016,08,19,10,04,23.70
2016,08,19,10,05,23.70
2016,08,19,10,06,23.60
2016,08,19,10,07,23.60
2016,08,19,10,08,23.60
2016,08,19,10,09,23.60
2016,08,19,10,10,23.60
2016,08,19,10,11,23.50
2016,08,19,10,12,23.40
2016,08,19,10,13,23.40
2016,08,19,10,14,23.40
2016,08,19,10,15,23.40
2016,08,19,10,16,23.50
2016,08,19,10,17,23.60
2016,08,19,10,18,23.70
2016,08,19,10,19,23.70
2016,08,19,10,20,23.70
2016,08,19,10,21,23.70
2016,08,19,10,22,23.70
2016,08,19,10,23,23.70
2016,08,19,10,24,23.70
2016,08,19,10,25,23.70
2016,08,19,10,26,23.70
2016,08,19,10,27,23.70
2016,08,19,10,28,23.70
2016,08,19,10,29,23.70
2016,08,19,10,30,23.70
2016,08,19,10,31,23.70
2016,08,19,10,32,23.70
2016,08,19,10,33,23.80
2016,08,19,10,34,23.80
2016,08,19,10,35,23.90
2016,08,19,10,36,24.00
2016,08,19,10,37,24.10
2016,08,19,10,38,24.10
2016,08,19,10,39,24.20
2016,08,19,10,40,24.30
2016,08,19,10,41,24.40
2016,08,19,10,42,24.40
2016,08,19,10,43,24.50
2016,08,19,10,44,24.50
2016,08,19,10,45,24.60
2016,08,19,10,46,24.70
2016,08,19,10,47,24.70
2016,08,19,10,48,24.90
2016,08,19,10,49,24.90
2016,08,19,10,50,25.10
2016,08,19,10,51,25.10
2016,08,19,10,52,25.20
2016,08,19,10,53,25.20
2016,08,19,10,54,25.20
2016,08,19,10,55,25.30
2016,08,19,10,56,25.30
2016,08,19,10,57,25.30
2016,08,19,10,58,25.40
2016,08,19,10,59,25.40
2016,08,19,11,00,25.40
2016,08,19,11,01,25.50
2016,08,19,11,02,25.50
2016,08,19,11,03,25.50
2016,08,19,11,04,25.40
2016,08,19,11,05,25.40
2016,08,19,11,06,25.30
2016,08,19,11,07,25.30
2016,08,19,11,08,25.20
2016,08,19,11,09,25.20
2016,08,19,11,10,25.20
2016,08,19,11,11,25.30
2016,08,19,11,12,25.20
2016,08,19,11,13,25.20
2016,08,19,11,14,25.20
2016,08,19,11,15,25.30
2016,08,19,11,16,25.30
2016,08,19,11,17,25.30
2016,08,19,11,18,25.40
2016,08,19,11,19,25.40
2016,08,19,11,20,25.40
2016,08,19,11,21,25.40
2016,08,19,11,22,25.50
2016,08,19,11,23,25.40
2016,08,19,11,24,25.40
2016,08,19,11,25,25.40
2016,08,19,11,26,25.40
2016,08,19,11,27,25.50
2016,08,19,11,28,25.50
2016,08,19,11,29,25.50
2016,08,19,11,30,25.60
2016,08,19,11,31,25.60
2016,08,19,11,32,25.50
2016,08,19,11,33,25.50
2016,08,19,11,34,25.40
2016,08,19,11,35,25.40
2016,08,19,11,36,25.40
2016,08,19,11,37,25.50
2016,08,19,11,38,25.50
2016,08,19,11,39,25.50
2016,08,19,11,40,25.50
2016,08,19,11,41,25.50
2016,08,19,11,42,25.50
2016,08,19,11,43,25.50
2016,08,19,11,44,25.60
2016,08,19,11,45,25.60
2016,08,19,11,46,25.60
2016,08,19,11,47,25.60
2016,08,19,11,48,25.60
2016,08,19,11,49,25.50
2016,08,19,11,50,25.60
2016,08,19,11,51,25.60
2016,08,19,11,52,25.70
2016,08,19,11,53,25.70
2016,08,19,11,54,25.80
2016,08,19,11,55,25.80
2016,08,19,11,56,25.70
2016,08,19,11,57,25.70
2016,08,19,11,58,25.70
2016,08,19,11,59,25.80
2016,08,19,12,00,25.80
2016,08,19,12,01,25.80
2016,08,19,12,02,25.90
2016,08,19,12,03,25.90
2016,08,19,12,04,25.90
2016,08,19,12,05,25.90
2016,08,19,12,06,26.00
2016,08,19,12,07,26.20
2016,08,19,12,08,26.30
2016,08,19,12,09,26.40
2016,08,19,12,10,26.60
2016,08,19,12,11,26.60
2016,08,19,12,12,26.50
2016,08,19,12,13,26.40
2016,08,19,12,14,26.40
2016,08,19,12,15,26.40
2016,08,19,12,16,26.40
2016,08,19,12,17,26.40
2016,08,19,12,18,26.40
2016,08,19,12,19,26.40
2016,08,19,12,20,26.50
2016,08,19,12,21,26.60
2016,08,19,12,22,26.50
2016,08,19,12,23,26.40
2016,08,19,12,24,26.40
2016,08,19,12,25,26.40
2016,08,19,12,26,26.50
2016,08,19,12,27,26.60
2016,08,19,12,28,26.60
2016,08,19,12,29,26.70
2016,08,19,12,30,26.80
2016,08,19,12,31,26.90
2016,08,19,12,32,26.90
2016,08,19,12,33,26.80
2016,08,19,12,34,26.70
2016,08,19,12,35,26.60
2016,08,19,12,36,26.50
2016,08,19,12,37,26.40
2016,08,19,12,38,26.40
2016,08,19,12,39,26.50
2016,08,19,12,40,26.40
2016,08,19,12,41,26.50
2016,08,19,12,42,26.50
2016,08,19,12,43,26.60
2016,08,19,12,44,26.60
2016,08,19,12,45,26.70
2016,08,19,12,46,26.80
2016,08,19,12,47,26.80
2016,08,19,12,48,26.80
2016,08,19,12,49,26.80
2016,08,19,12,50,26.80
2016,08,19,12,51,26.90
2016,08,19,12,52,27.00
2016,08,19,12,53,27.10
2016,08,19,12,54,27.20
2016,08,19,12,55,27.20
2016,08,19,12,56,27.10
2016,08,19,12,57,27.00
2016,08,19,12,58,26.90
2016,08,19,12,59,26.90
2016,08,19,13,00,26.90
2016,08,19,13,01,27.10
2016,08,19,13,02,27.10
2016,08,19,13,03,27.10
2016,08,19,13,04,27.10
2016,08,19,13,05,27.20
2016,08,19,13,06,27.30
2016,08,19,13,07,27.40
2016,08,19,13,08,27.50
2016,08,19,13,09,27.60
2016,08,19,13,10,27.70
2016,08,19,13,11,27.70
2016,08,19,13,12,27.80
2016,08,19,13,13,27.90
2016,08,19,13,14,27.90
2016,08,19,13,15,28.00
2016,08,19,13,16,28.00
2016,08,19,13,17,28.00
2016,08,19,13,18,27.90
2016,08,19,13,19,27.80
2016,08,19,13,20,27.80
2016,08,19,13,21,27.90
2016,08,19,13,22,28.00
2016,08,19,13,23,28.00
2016,08,19,13,24,28.00
2016,08,19,13,25,27.90
2016,08,19,13,26,27.90
2016,08,19,13,27,27.90
2016,08,19,13,28,28.00
2016,08,19,13,29,28.10
2016,08,19,13,30,28.20
2016,08,19,13,31,28.20
2016,08,19,13,32,28.30
2016,08,19,13,33,28.30
2016,08,19,13,34,28.30
2016,08,19,13,35,28.30
2016,08,19,13,36,28.30
2016,08,19,13,37,28.30
2016,08,19,13,38,28.40
2016,08,19,13,39,28.40
2016,08,19,13,40,28.40
2016,08,19,13,41,28.40
2016,08,19,13,42,28.50
2016,08,19,13,43,28.60
2016,08,19,13,44,28.70
2016,08,19,13,45,28.80
2016,08,19,13,46,28.90
2016,08,19,13,47,28.90
2016,08,19,13,48,29.00
2016,08,19,13,49,29.00
2016,08,19,13,50,29.00
2016,08,19,13,51,29.00
2016,08,19,13,52,29.10
2016,08,19,13,53,29.10
2016,08,19,13,54,29.10
2016,08,19,13,55,29.20
2016,08,19,13,56,29.30
2016,08,19,13,57,29.40
2016,08,19,13,58,29.50
2016,08,19,13,59,29.50
2016,08,19,14,00,29.60
2016,08,19,14,01,29.70
2016,08,19,14,02,29.70
2016,08,19,14,03,29.80
2016,08,19,14,04,29.80
2016,08,19,14,05,29.80
2016,08,19,14,06,29.80
2016,08,19,14,07,29.90
2016,08,19,14,08,29.90
2016,08,19,14,09,29.90
2016,08,19,14,10,29.90
2016,08,19,14,11,30.00
2016,08,19,14,12,30.10
2016,08,19,14,13,30.10
2016,08,19,14,14,30.10
2016,08,19,14,15,30.10
2016,08,19,14,16,30.00
2016,08,19,14,17,29.80
2016,08,19,14,18,29.80
2016,08,19,14,19,29.70
2016,08,19,14,20,29.70
2016,08,19,14,21,29.50
2016,08,19,14,22,29.50
2016,08,19,14,23,29.40
2016,08,19,14,24,29.30
2016,08,19,14,25,29.30
2016,08,19,14,26,29.30
2016,08,19,14,27,29.30
2016,08,19,14,28,29.40
2016,08,19,14,29,29.40
2016,08,19,14,30,29.50
2016,08,19,14,31,29.50
2016,08,19,14,32,29.60
2016,08,19,14,33,29.70
2016,08,19,14,34,29.70
2016,08,19,14,35,29.90
2016,08,19,14,36,30.00
2016,08,19,14,37,30.10
2016,08,19,14,38,30.20
2016,08,19,14,39,30.30
2016,08,19,14,40,30.50
2016,08,19,14,41,30.60
2016,08,19,14,42,30.60
2016,08,19,14,43,30.60
2016,08,19,14,44,30.50
2016,08,19,14,45,30.40
2016,08,19,14,46,30.30
2016,08,19,14,47,30.40
2016,08,19,14,48,30.50
2016,08,19,14,49,30.60
2016,08,19,14,50,30.60
2016,08,19,14,51,30.70
2016,08,19,14,52,30.80
2016,08,19,14,53,30.80
2016,08,19,14,54,30.90
2016,08,19,14,55,30.90
2016,08,19,14,56,30.90
2016,08,19,14,57,30.90
2016,08,19,14,58,30.90
2016,08,19,14,59,30.90
2016,08,19,15,00,30.90
2016,08,19,15,01,30.90
2016,08,19,15,02,30.90
2016,08,19,15,03,31.00
2016,08,19,15,04,31.00
2016,08,19,15,05,31.00
2016,08,19,15,06,31.10
2016,08,19,15,07,31.10
2016,08,19,15,08,31.10
2016,08,19,15,09,31.10
2016,08,19,15,10,31.10
2016,08,19,15,11,31.20
2016,08,19,15,12,31.20
2016,08,19,15,13,31.20
2016,08,19,15,14,31.20
2016,08,19,15,15,31.20
2016,08,19,15,16,31.20
2016,08,19,15,17,31.20
2016,08,19,15,18,31.20
2016,08,19,15,19,31.20
2016,08,19,15,20,31.20
2016,08,19,15,21,31.20
2016,08,19,15,22,31.10
2016,08,19,15,23,31.00
2016,08,19,15,24,31.00
2016,08,19,15,25,30.90
2016,08,19,15,26,30.80
2016,08,19,15,27,30.70
2016,08,19,15,28,30.70
2016,08,19,15,29,30.70
2016,08,19,15,30,30.70
2016,08,19,15,31,30.60
2016,08,19,15,32,30.60
2016,08,19,15,33,30.60
2016,08,19,15,34,30.60
2016,08,19,15,35,30.70
2016,08,19,15,36,30.80
2016,08,19,15,37,31.00
2016,08,19,15,38,31.10
2016,08,19,15,39,31.20
2016,08,19,15,40,31.30
2016,08,19,15,41,31.40
2016,08,19,15,42,31.40
2016,08,19,15,43,31.50
2016,08,19,15,44,31.50
2016,08,19,15,45,31.40
2016,08,19,15,46,31.40
2016,08,19,15,47,31.30
2016,08,19,15,48,31.30
2016,08,19,15,49,31.30
2016,08,19,15,50,31.40
2016,08,19,15,51,31.40
2016,08,19,15,52,31.50
2016,08,19,15,53,31.60
2016,08,19,15,54,31.60
2016,08,19,15,55,31.60
2016,08,19,15,56,31.60
2016,08,19,15,57,31.60
2016,08,19,15,58,31.50
2016,08,19,15,59,31.40
2016,08,19,16,00,31.30
2016,08,19,16,01,31.30
2016,08,19,16,02,31.40
2016,08,19,16,03,31.40
2016,08,19,16,04,31.40
2016,08,19,16,05,31.30
2016,08,19,16,06,31.30
2016,08,19,16,07,31.30
2016,08,19,16,08,31.30
2016,08,19,16,09,31.20
2016,08,19,16,10,31.20
2016,08,19,16,11,31.30
2016,08,19,16,12,31.30
2016,08,19,16,13,31.30
2016,08,19,16,14,31.30
2016,08,19,16,15,31.30
2016,08,19,16,16,31.40
2016,08,19,16,17,31.40
2016,08,19,16,18,31.40
2016,08,19,16,19,31.50
2016,08,19,16,20,31.60
2016,08,19,16,21,31.60
2016,08,19,16,22,31.60
2016,08,19,16,23,31.60
2016,08,19,16,24,31.60
2016,08,19,16,25,31.70
2016,08,19,16,26,31.70
2016,08,19,16,27,31.70
2016,08,19,16,28,31.70
2016,08,19,16,29,31.60
2016,08,19,16,30,31.60
2016,08,19,16,31,31.60
2016,08,19,16,32,31.60
2016,08,19,16,33,31.60
2016,08,19,16,34,31.60
2016,08,19,16,35,31.60
2016,08,19,16,36,31.70
2016,08,19,16,37,31.70
2016,08,19,16,38,31.80
2016,08,19,16,39,31.80
2016,08,19,16,40,31.80
2016,08,19,16,41,31.80
2016,08,19,16,42,31.90
2016,08,19,16,43,31.90
2016,08,19,16,44,31.90
2016,08,19,16,45,32.00
2016,08,19,16,46,32.10
2016,08,19,16,47,32.20
2016,08,19,16,48,32.20
2016,08,19,16,49,32.20
2016,08,19,16,50,32.20
2016,08,19,16,51,32.20
2016,08,19,16,52,32.10
2016,08,19,16,53,31.90
2016,08,19,16,54,31.80
2016,08,19,16,55,31.70
2016,08,19,16,56,31.70
2016,08,19,16,57,31.60
2016,08,19,16,58,31.60
2016,08,19,16,59,31.60
2016,08,19,17,00,31.60
2016,08,19,17,01,31.60
2016,08,19,17,02,31.60
2016,08,19,17,03,31.60
2016,08,19,17,04,31.60
2016,08,19,17,05,31.60
2016,08,19,17,06,31.60
2016,08,19,17,07,31.60
2016,08,19,17,08,31.60
2016,08,19,17,09,31.60
2016,08,19,17,10,31.50
2016,08,19,17,11,31.40
2016,08,19,17,12,31.40
2016,08,19,17,13,31.40
2016,08,19,17,14,31.40
2016,08,19,17,15,31.40
2016,08,19,17,16,31.40
2016,08,19,17,17,31.40
2016,08,19,17,18,31.40
2016,08,19,17,19,31.50